Data supplied by UK-AIR on 2/5/2024
All Data GMT hour ending 
Status: R =Ratified P=Provisional,P*=As supplied
,,Tower Hamlets Roadside,,,,,,,,,,,,,,,,,,,,,,,
Date,time,"Nitric oxide",status,unit,"Nitrogen dioxide",status,unit,"Nitrogen oxides as nitrogen dioxide",status,unit
 
01-01-2024,01:00,1.74622,P,ugm-3,8.98875,P,ugm-3,11.66625,P,ugm-3
01-01-2024,02:00,2.61933,P,ugm-3,9.75375,P,ugm-3,13.77000,P,ugm-3
01-01-2024,03:00,2.74406,P,ugm-3,9.56250,P,ugm-3,13.77000,P,ugm-3
01-01-2024,04:00,1.99568,P,ugm-3,8.41500,P,ugm-3,11.47500,P,ugm-3
01-01-2024,05:00,1.62149,P,ugm-3,7.26750,P,ugm-3,9.75375,P,ugm-3
01-01-2024,06:00,1.24730,P,ugm-3,7.26750,P,ugm-3,9.18000,P,ugm-3
01-01-2024,07:00,2.12041,P,ugm-3,8.79750,P,ugm-3,12.04875,P,ugm-3
01-01-2024,08:00,1.24730,P,ugm-3,8.22375,P,ugm-3,10.13625,P,ugm-3
01-01-2024,09:00,1.12257,P,ugm-3,6.31125,P,ugm-3,8.03250,P,ugm-3
01-01-2024,10:00,2.61933,P,ugm-3,6.31125,P,ugm-3,10.32750,P,ugm-3
01-01-2024,11:00,1.74622,P,ugm-3,9.37125,P,ugm-3,12.04875,P,ugm-3
01-01-2024,12:00,2.12041,P,ugm-3,8.60625,P,ugm-3,11.85750,P,ugm-3
01-01-2024,13:00,3.24298,P,ugm-3,10.32750,P,ugm-3,15.30000,P,ugm-3
01-01-2024,14:00,1.87095,P,ugm-3,9.75375,P,ugm-3,12.62250,P,ugm-3
01-01-2024,15:00,1.87095,P,ugm-3,12.04875,P,ugm-3,14.91750,P,ugm-3
01-01-2024,16:00,1.62149,P,ugm-3,15.10875,P,ugm-3,17.59500,P,ugm-3
01-01-2024,17:00,0.87311,P,ugm-3,14.91750,P,ugm-3,16.25625,P,ugm-3
01-01-2024,18:00,1.37203,P,ugm-3,12.62250,P,ugm-3,14.72625,P,ugm-3
01-01-2024,19:00,0.87311,P,ugm-3,7.65000,P,ugm-3,8.98875,P,ugm-3
01-01-2024,20:00,0.49892,P,ugm-3,7.45875,P,ugm-3,8.22375,P,ugm-3
01-01-2024,21:00,0.74838,P,ugm-3,6.12000,P,ugm-3,7.26750,P,ugm-3
01-01-2024,22:00,0.74838,P,ugm-3,6.69375,P,ugm-3,7.84125,P,ugm-3
01-01-2024,23:00,0.62365,P,ugm-3,4.78125,P,ugm-3,5.73750,P,ugm-3
01-01-2024,24:00,0.49892,P,ugm-3,4.97250,P,ugm-3,5.73750,P,ugm-3
02-01-2024,01:00,0.62365,P,ugm-3,4.01625,P,ugm-3,4.97250,P,ugm-3
02-01-2024,02:00,0.74838,P,ugm-3,3.63375,P,ugm-3,4.78125,P,ugm-3
02-01-2024,03:00,0.74838,P,ugm-3,4.39875,P,ugm-3,5.54625,P,ugm-3
02-01-2024,04:00,0.87311,P,ugm-3,3.63375,P,ugm-3,4.97250,P,ugm-3
02-01-2024,05:00,0.62365,P,ugm-3,3.06000,P,ugm-3,4.01625,P,ugm-3
02-01-2024,06:00,1.12257,P,ugm-3,3.25125,P,ugm-3,4.97250,P,ugm-3
02-01-2024,07:00,0.37419,P,ugm-3,5.73750,P,ugm-3,6.31125,P,ugm-3
02-01-2024,08:00,0.49892,P,ugm-3,9.94500,P,ugm-3,10.71000,P,ugm-3
02-01-2024,09:00,1.12257,P,ugm-3,17.97750,P,ugm-3,19.69875,P,ugm-3
02-01-2024,10:00,1.49676,P,ugm-3,17.02125,P,ugm-3,19.31625,P,ugm-3
02-01-2024,11:00,2.24514,P,ugm-3,16.63875,P,ugm-3,20.08125,P,ugm-3
02-01-2024,12:00,1.24730,P,ugm-3,9.37125,P,ugm-3,11.28375,P,ugm-3
02-01-2024,13:00,0.74838,P,ugm-3,7.26750,P,ugm-3,8.41500,P,ugm-3
02-01-2024,14:00,1.49676,P,ugm-3,8.41500,P,ugm-3,10.71000,P,ugm-3
02-01-2024,15:00,1.62149,P,ugm-3,5.35500,P,ugm-3,7.84125,P,ugm-3
02-01-2024,16:00,1.99568,P,ugm-3,6.69375,P,ugm-3,9.75375,P,ugm-3
02-01-2024,17:00,2.24514,P,ugm-3,6.69375,P,ugm-3,10.13625,P,ugm-3
02-01-2024,18:00,2.49460,P,ugm-3,10.71000,P,ugm-3,14.53500,P,ugm-3
02-01-2024,19:00,2.86879,P,ugm-3,11.47500,P,ugm-3,15.87375,P,ugm-3
02-01-2024,20:00,3.61717,P,ugm-3,13.77000,P,ugm-3,19.31625,P,ugm-3
02-01-2024,21:00,2.86879,P,ugm-3,13.19625,P,ugm-3,17.59500,P,ugm-3
02-01-2024,22:00,1.74622,P,ugm-3,10.32750,P,ugm-3,13.00500,P,ugm-3
02-01-2024,23:00,1.62149,P,ugm-3,8.79750,P,ugm-3,11.28375,P,ugm-3
02-01-2024,24:00,1.62149,P,ugm-3,6.50250,P,ugm-3,8.98875,P,ugm-3
03-01-2024,01:00,1.49676,P,ugm-3,6.12000,P,ugm-3,8.41500,P,ugm-3
03-01-2024,02:00,,,,,,,,,
03-01-2024,03:00,0.99784,P,ugm-3,3.44250,P,ugm-3,4.97250,P,ugm-3
03-01-2024,04:00,0.99784,P,ugm-3,2.67750,P,ugm-3,4.20750,P,ugm-3
03-01-2024,05:00,0.99784,P,ugm-3,3.82500,P,ugm-3,5.35500,P,ugm-3
03-01-2024,06:00,0.49892,P,ugm-3,4.01625,P,ugm-3,4.78125,P,ugm-3
03-01-2024,07:00,1.24730,P,ugm-3,6.50250,P,ugm-3,8.41500,P,ugm-3
03-01-2024,08:00,1.62149,P,ugm-3,8.79750,P,ugm-3,11.28375,P,ugm-3
03-01-2024,09:00,3.74190,P,ugm-3,13.77000,P,ugm-3,19.50750,P,ugm-3
03-01-2024,10:00,4.98920,P,ugm-3,12.24000,P,ugm-3,19.89000,P,ugm-3
03-01-2024,11:00,3.99136,P,ugm-3,10.90125,P,ugm-3,17.02125,P,ugm-3
03-01-2024,12:00,4.11609,P,ugm-3,10.90125,P,ugm-3,17.21250,P,ugm-3
03-01-2024,13:00,7.98272,P,ugm-3,21.42000,P,ugm-3,33.66000,P,ugm-3
03-01-2024,14:00,8.85583,P,ugm-3,21.61125,P,ugm-3,35.19000,P,ugm-3
03-01-2024,15:00,6.36123,P,ugm-3,20.08125,P,ugm-3,29.83500,P,ugm-3
03-01-2024,16:00,7.10961,P,ugm-3,23.14125,P,ugm-3,34.04250,P,ugm-3
03-01-2024,17:00,7.23434,P,ugm-3,26.01000,P,ugm-3,37.10250,P,ugm-3
03-01-2024,18:00,8.48164,P,ugm-3,31.74750,P,ugm-3,44.75250,P,ugm-3
03-01-2024,19:00,7.98272,P,ugm-3,26.58375,P,ugm-3,38.82375,P,ugm-3
03-01-2024,20:00,8.98056,P,ugm-3,24.28875,P,ugm-3,38.05875,P,ugm-3
03-01-2024,21:00,5.86231,P,ugm-3,24.67125,P,ugm-3,33.66000,P,ugm-3
03-01-2024,22:00,6.11177,P,ugm-3,24.09750,P,ugm-3,33.46875,P,ugm-3
03-01-2024,23:00,4.73974,P,ugm-3,25.81875,P,ugm-3,33.08625,P,ugm-3
03-01-2024,24:00,4.73974,P,ugm-3,22.56750,P,ugm-3,29.83500,P,ugm-3
04-01-2024,01:00,3.49244,P,ugm-3,14.91750,P,ugm-3,20.27250,P,ugm-3
04-01-2024,02:00,3.49244,P,ugm-3,12.43125,P,ugm-3,17.78625,P,ugm-3
04-01-2024,03:00,1.99568,P,ugm-3,9.56250,P,ugm-3,12.62250,P,ugm-3
04-01-2024,04:00,1.37203,P,ugm-3,8.60625,P,ugm-3,10.71000,P,ugm-3
04-01-2024,05:00,1.87095,P,ugm-3,6.31125,P,ugm-3,9.18000,P,ugm-3
04-01-2024,06:00,1.87095,P,ugm-3,8.03250,P,ugm-3,10.90125,P,ugm-3
04-01-2024,07:00,2.49460,P,ugm-3,11.47500,P,ugm-3,15.30000,P,ugm-3
04-01-2024,08:00,2.86879,P,ugm-3,15.10875,P,ugm-3,19.50750,P,ugm-3
04-01-2024,09:00,5.23866,P,ugm-3,21.42000,P,ugm-3,29.45250,P,ugm-3
04-01-2024,10:00,6.73542,P,ugm-3,24.86250,P,ugm-3,35.19000,P,ugm-3
04-01-2024,11:00,6.98488,P,ugm-3,24.67125,P,ugm-3,35.38125,P,ugm-3
04-01-2024,12:00,4.61501,P,ugm-3,18.74250,P,ugm-3,25.81875,P,ugm-3
04-01-2024,13:00,4.49028,P,ugm-3,24.48000,P,ugm-3,31.36500,P,ugm-3
04-01-2024,14:00,5.61285,P,ugm-3,31.74750,P,ugm-3,40.35375,P,ugm-3
04-01-2024,15:00,14.09449,P,ugm-3,44.17875,P,ugm-3,65.79000,P,ugm-3
04-01-2024,16:00,7.85799,P,ugm-3,30.02625,P,ugm-3,42.07500,P,ugm-3
04-01-2024,17:00,7.35907,P,ugm-3,29.07000,P,ugm-3,40.35375,P,ugm-3
04-01-2024,18:00,14.84287,P,ugm-3,32.13000,P,ugm-3,54.88875,P,ugm-3
04-01-2024,19:00,6.11177,P,ugm-3,23.90625,P,ugm-3,33.27750,P,ugm-3
04-01-2024,20:00,7.73326,P,ugm-3,23.90625,P,ugm-3,35.76375,P,ugm-3
04-01-2024,21:00,11.59989,P,ugm-3,31.55625,P,ugm-3,49.34250,P,ugm-3
04-01-2024,22:00,5.98704,P,ugm-3,26.39250,P,ugm-3,35.57250,P,ugm-3
04-01-2024,23:00,6.48596,P,ugm-3,24.09750,P,ugm-3,34.04250,P,ugm-3
04-01-2024,24:00,8.60637,P,ugm-3,19.50750,P,ugm-3,32.70375,P,ugm-3
05-01-2024,01:00,5.61285,P,ugm-3,14.34375,P,ugm-3,22.95000,P,ugm-3
05-01-2024,02:00,2.74406,P,ugm-3,6.12000,P,ugm-3,10.32750,P,ugm-3
05-01-2024,03:00,1.74622,P,ugm-3,4.39875,P,ugm-3,7.07625,P,ugm-3
05-01-2024,04:00,0.99784,P,ugm-3,3.63375,P,ugm-3,5.16375,P,ugm-3
05-01-2024,05:00,3.24298,P,ugm-3,8.60625,P,ugm-3,13.57875,P,ugm-3
05-01-2024,06:00,3.11825,P,ugm-3,13.77000,P,ugm-3,18.55125,P,ugm-3
05-01-2024,07:00,3.36771,P,ugm-3,13.19625,P,ugm-3,18.36000,P,ugm-3
05-01-2024,08:00,4.61501,P,ugm-3,14.72625,P,ugm-3,21.80250,P,ugm-3
05-01-2024,09:00,9.85367,P,ugm-3,20.84625,P,ugm-3,35.95500,P,ugm-3
05-01-2024,10:00,21.45356,P,ugm-3,27.15750,P,ugm-3,60.05250,P,ugm-3
05-01-2024,11:00,11.84935,P,ugm-3,23.90625,P,ugm-3,42.07500,P,ugm-3
05-01-2024,12:00,12.72246,P,ugm-3,21.42000,P,ugm-3,40.92750,P,ugm-3
05-01-2024,13:00,12.22354,P,ugm-3,23.52375,P,ugm-3,42.26625,P,ugm-3
05-01-2024,14:00,15.84071,P,ugm-3,27.34875,P,ugm-3,51.63750,P,ugm-3
05-01-2024,15:00,12.84719,P,ugm-3,28.87875,P,ugm-3,48.57750,P,ugm-3
05-01-2024,16:00,20.45572,P,ugm-3,29.45250,P,ugm-3,60.81750,P,ugm-3
05-01-2024,17:00,15.84071,P,ugm-3,31.17375,P,ugm-3,55.46250,P,ugm-3
05-01-2024,18:00,19.58261,P,ugm-3,36.72000,P,ugm-3,66.74625,P,ugm-3
05-01-2024,19:00,22.20194,P,ugm-3,37.86750,P,ugm-3,71.91000,P,ugm-3
05-01-2024,20:00,19.83207,P,ugm-3,30.02625,P,ugm-3,60.43500,P,ugm-3
05-01-2024,21:00,24.19762,P,ugm-3,30.98250,P,ugm-3,68.08500,P,ugm-3
05-01-2024,22:00,26.31803,P,ugm-3,32.70375,P,ugm-3,73.05750,P,ugm-3
05-01-2024,23:00,25.44492,P,ugm-3,35.57250,P,ugm-3,74.58750,P,ugm-3
05-01-2024,24:00,22.07721,P,ugm-3,31.55625,P,ugm-3,65.40750,P,ugm-3
06-01-2024,01:00,16.21490,P,ugm-3,29.26125,P,ugm-3,54.12375,P,ugm-3
06-01-2024,02:00,14.96760,P,ugm-3,28.30500,P,ugm-3,51.25500,P,ugm-3
06-01-2024,03:00,11.47516,P,ugm-3,22.37625,P,ugm-3,39.97125,P,ugm-3
06-01-2024,04:00,4.86447,P,ugm-3,18.55125,P,ugm-3,26.01000,P,ugm-3
06-01-2024,05:00,7.73326,P,ugm-3,17.59500,P,ugm-3,29.45250,P,ugm-3
06-01-2024,06:00,5.98704,P,ugm-3,17.02125,P,ugm-3,26.20125,P,ugm-3
06-01-2024,07:00,5.61285,P,ugm-3,19.12500,P,ugm-3,27.73125,P,ugm-3
06-01-2024,08:00,8.73110,P,ugm-3,20.65500,P,ugm-3,34.04250,P,ugm-3
06-01-2024,09:00,10.47732,P,ugm-3,24.09750,P,ugm-3,40.16250,P,ugm-3
06-01-2024,10:00,10.85151,P,ugm-3,23.33250,P,ugm-3,39.97125,P,ugm-3
06-01-2024,11:00,13.59557,P,ugm-3,22.18500,P,ugm-3,43.03125,P,ugm-3
06-01-2024,12:00,11.97408,P,ugm-3,21.80250,P,ugm-3,40.16250,P,ugm-3
06-01-2024,13:00,10.72678,P,ugm-3,18.36000,P,ugm-3,34.80750,P,ugm-3
06-01-2024,14:00,12.47300,P,ugm-3,20.65500,P,ugm-3,39.78000,P,ugm-3
06-01-2024,15:00,12.34827,P,ugm-3,23.14125,P,ugm-3,42.07500,P,ugm-3
06-01-2024,16:00,11.47516,P,ugm-3,22.56750,P,ugm-3,40.16250,P,ugm-3
06-01-2024,17:00,14.96760,P,ugm-3,30.02625,P,ugm-3,52.97625,P,ugm-3
06-01-2024,18:00,22.32667,P,ugm-3,33.46875,P,ugm-3,67.70250,P,ugm-3
06-01-2024,19:00,19.20842,P,ugm-3,29.64375,P,ugm-3,59.09625,P,ugm-3
06-01-2024,20:00,17.21274,P,ugm-3,27.54000,P,ugm-3,53.93250,P,ugm-3
06-01-2024,21:00,13.96976,P,ugm-3,26.01000,P,ugm-3,47.43000,P,ugm-3
06-01-2024,22:00,11.72462,P,ugm-3,21.99375,P,ugm-3,39.97125,P,ugm-3
06-01-2024,23:00,8.48164,P,ugm-3,17.02125,P,ugm-3,30.02625,P,ugm-3
06-01-2024,24:00,8.10745,P,ugm-3,16.25625,P,ugm-3,28.68750,P,ugm-3
07-01-2024,01:00,5.23866,P,ugm-3,14.72625,P,ugm-3,22.75875,P,ugm-3
07-01-2024,02:00,9.47948,P,ugm-3,18.74250,P,ugm-3,33.27750,P,ugm-3
07-01-2024,03:00,6.48596,P,ugm-3,18.74250,P,ugm-3,28.68750,P,ugm-3
07-01-2024,04:00,2.99352,P,ugm-3,12.24000,P,ugm-3,16.83000,P,ugm-3
07-01-2024,05:00,3.11825,P,ugm-3,13.57875,P,ugm-3,18.36000,P,ugm-3
07-01-2024,06:00,3.11825,P,ugm-3,12.81375,P,ugm-3,17.59500,P,ugm-3
07-01-2024,07:00,3.24298,P,ugm-3,15.30000,P,ugm-3,20.27250,P,ugm-3
07-01-2024,08:00,4.11609,P,ugm-3,16.06500,P,ugm-3,22.37625,P,ugm-3
07-01-2024,09:00,4.98920,P,ugm-3,17.97750,P,ugm-3,25.62750,P,ugm-3
07-01-2024,10:00,5.98704,P,ugm-3,16.44750,P,ugm-3,25.62750,P,ugm-3
07-01-2024,11:00,5.61285,P,ugm-3,13.00500,P,ugm-3,21.61125,P,ugm-3
07-01-2024,12:00,4.86447,P,ugm-3,12.43125,P,ugm-3,19.89000,P,ugm-3
07-01-2024,13:00,5.36339,P,ugm-3,12.04875,P,ugm-3,20.27250,P,ugm-3
07-01-2024,14:00,7.48380,P,ugm-3,13.57875,P,ugm-3,25.05375,P,ugm-3
07-01-2024,15:00,6.73542,P,ugm-3,12.24000,P,ugm-3,22.56750,P,ugm-3
07-01-2024,16:00,5.11393,P,ugm-3,13.96125,P,ugm-3,21.80250,P,ugm-3
07-01-2024,17:00,5.11393,P,ugm-3,15.10875,P,ugm-3,22.95000,P,ugm-3
07-01-2024,18:00,6.11177,P,ugm-3,17.02125,P,ugm-3,26.39250,P,ugm-3
07-01-2024,19:00,7.23434,P,ugm-3,21.22875,P,ugm-3,32.32125,P,ugm-3
07-01-2024,20:00,9.10529,P,ugm-3,26.96625,P,ugm-3,40.92750,P,ugm-3
07-01-2024,21:00,14.46868,P,ugm-3,31.17375,P,ugm-3,53.35875,P,ugm-3
07-01-2024,22:00,9.97840,P,ugm-3,23.33250,P,ugm-3,38.63250,P,ugm-3
07-01-2024,23:00,7.48380,P,ugm-3,21.03750,P,ugm-3,32.51250,P,ugm-3
07-01-2024,24:00,7.60853,P,ugm-3,17.97750,P,ugm-3,29.64375,P,ugm-3
08-01-2024,01:00,5.36339,P,ugm-3,15.87375,P,ugm-3,24.09750,P,ugm-3
08-01-2024,02:00,3.99136,P,ugm-3,13.00500,P,ugm-3,19.12500,P,ugm-3
08-01-2024,03:00,4.36555,P,ugm-3,13.57875,P,ugm-3,20.27250,P,ugm-3
08-01-2024,04:00,3.61717,P,ugm-3,11.09250,P,ugm-3,16.63875,P,ugm-3
08-01-2024,05:00,2.49460,P,ugm-3,8.03250,P,ugm-3,11.85750,P,ugm-3
08-01-2024,06:00,3.11825,P,ugm-3,10.90125,P,ugm-3,15.68250,P,ugm-3
08-01-2024,07:00,5.23866,P,ugm-3,15.10875,P,ugm-3,23.14125,P,ugm-3
08-01-2024,08:00,9.72894,P,ugm-3,22.95000,P,ugm-3,37.86750,P,ugm-3
08-01-2024,09:00,18.08585,P,ugm-3,30.98250,P,ugm-3,58.71375,P,ugm-3
08-01-2024,10:00,11.97408,P,ugm-3,25.62750,P,ugm-3,42.07500,P,ugm-3
08-01-2024,11:00,11.72462,P,ugm-3,21.99375,P,ugm-3,38.25000,P,ugm-3
08-01-2024,12:00,13.34611,P,ugm-3,21.80250,P,ugm-3,40.16250,P,ugm-3
08-01-2024,13:00,15.46652,P,ugm-3,23.33250,P,ugm-3,45.90000,P,ugm-3
08-01-2024,14:00,15.59125,P,ugm-3,23.52375,P,ugm-3,45.90000,P,ugm-3
08-01-2024,15:00,13.84503,P,ugm-3,21.42000,P,ugm-3,42.07500,P,ugm-3
08-01-2024,16:00,17.46220,P,ugm-3,27.34875,P,ugm-3,53.55000,P,ugm-3
08-01-2024,17:00,20.58045,P,ugm-3,36.14625,P,ugm-3,65.02500,P,ugm-3
08-01-2024,18:00,17.21274,P,ugm-3,23.71500,P,ugm-3,47.81250,P,ugm-3
08-01-2024,19:00,15.71598,P,ugm-3,29.07000,P,ugm-3,51.63750,P,ugm-3
08-01-2024,20:00,15.96544,P,ugm-3,25.43625,P,ugm-3,47.81250,P,ugm-3
08-01-2024,21:00,11.22570,P,ugm-3,24.28875,P,ugm-3,40.16250,P,ugm-3
08-01-2024,22:00,9.60421,P,ugm-3,20.46375,P,ugm-3,32.51250,P,ugm-3
08-01-2024,23:00,4.86447,P,ugm-3,12.43125,P,ugm-3,17.21250,P,ugm-3
08-01-2024,24:00,3.86663,P,ugm-3,10.90125,P,ugm-3,15.30000,P,ugm-3
09-01-2024,01:00,,,,,,,13.38750,P,ugm-3
09-01-2024,02:00,3.24298,P,ugm-3,8.03250,P,ugm-3,11.47500,P,ugm-3
09-01-2024,03:00,2.74406,P,ugm-3,6.88500,P,ugm-3,9.56250,P,ugm-3
09-01-2024,04:00,1.87095,P,ugm-3,5.54625,P,ugm-3,5.73750,P,ugm-3
09-01-2024,05:00,2.24514,P,ugm-3,7.26750,P,ugm-3,7.65000,P,ugm-3
09-01-2024,06:00,2.74406,P,ugm-3,8.79750,P,ugm-3,11.47500,P,ugm-3
09-01-2024,07:00,4.11609,P,ugm-3,11.09250,P,ugm-3,15.30000,P,ugm-3
09-01-2024,08:00,6.73542,P,ugm-3,17.97750,P,ugm-3,26.77500,P,ugm-3
09-01-2024,09:00,18.46004,P,ugm-3,30.98250,P,ugm-3,57.37500,P,ugm-3
09-01-2024,10:00,19.58261,P,ugm-3,29.26125,P,ugm-3,57.37500,P,ugm-3
09-01-2024,11:00,15.71598,P,ugm-3,24.28875,P,ugm-3,45.90000,P,ugm-3
09-01-2024,12:00,13.22138,P,ugm-3,18.93375,P,ugm-3,36.33750,P,ugm-3
09-01-2024,13:00,13.47084,P,ugm-3,17.97750,P,ugm-3,36.33750,P,ugm-3
09-01-2024,14:00,,,,,,,38.25000,P,ugm-3
09-01-2024,15:00,14.21922,P,ugm-3,24.09750,P,ugm-3,43.98750,P,ugm-3
09-01-2024,16:00,27.69006,P,ugm-3,38.05875,P,ugm-3,78.41250,P,ugm-3
09-01-2024,17:00,27.56533,P,ugm-3,44.56125,P,ugm-3,86.06250,P,ugm-3
09-01-2024,18:00,22.07721,P,ugm-3,32.13000,P,ugm-3,63.11250,P,ugm-3
09-01-2024,19:00,15.21706,P,ugm-3,28.68750,P,ugm-3,51.63750,P,ugm-3
09-01-2024,20:00,12.09881,P,ugm-3,27.92250,P,ugm-3,43.98750,P,ugm-3
09-01-2024,21:00,13.84503,P,ugm-3,30.21750,P,ugm-3,49.72500,P,ugm-3
09-01-2024,22:00,8.23218,P,ugm-3,23.90625,P,ugm-3,34.42500,P,ugm-3
09-01-2024,23:00,8.48164,P,ugm-3,21.03750,P,ugm-3,32.51250,P,ugm-3
09-01-2024,24:00,7.98272,P,ugm-3,21.61125,P,ugm-3,32.51250,P,ugm-3
10-01-2024,01:00,6.11177,P,ugm-3,18.36000,P,ugm-3,24.86250,P,ugm-3
10-01-2024,02:00,5.61285,P,ugm-3,15.30000,P,ugm-3,22.95000,P,ugm-3
10-01-2024,03:00,4.86447,P,ugm-3,14.91750,P,ugm-3,19.12500,P,ugm-3
10-01-2024,04:00,3.61717,P,ugm-3,11.47500,P,ugm-3,15.30000,P,ugm-3
10-01-2024,05:00,4.86447,P,ugm-3,13.00500,P,ugm-3,17.21250,P,ugm-3
10-01-2024,06:00,4.73974,P,ugm-3,14.15250,P,ugm-3,19.12500,P,ugm-3
10-01-2024,07:00,9.97840,P,ugm-3,22.95000,P,ugm-3,38.25000,P,ugm-3
10-01-2024,08:00,13.47084,P,ugm-3,28.68750,P,ugm-3,47.81250,P,ugm-3
10-01-2024,09:00,19.95680,P,ugm-3,37.48500,P,ugm-3,66.93750,P,ugm-3
10-01-2024,10:00,15.21706,P,ugm-3,33.66000,P,ugm-3,55.46250,P,ugm-3
10-01-2024,11:00,19.83207,P,ugm-3,30.98250,P,ugm-3,59.28750,P,ugm-3
10-01-2024,12:00,19.08369,P,ugm-3,28.87875,P,ugm-3,57.37500,P,ugm-3
10-01-2024,13:00,21.70302,P,ugm-3,27.54000,P,ugm-3,59.28750,P,ugm-3
10-01-2024,14:00,17.33747,P,ugm-3,28.68750,P,ugm-3,53.55000,P,ugm-3
10-01-2024,15:00,13.59557,P,ugm-3,28.49625,P,ugm-3,45.90000,P,ugm-3
10-01-2024,16:00,24.32235,P,ugm-3,39.01500,P,ugm-3,74.58750,P,ugm-3
10-01-2024,17:00,30.43412,P,ugm-3,42.84000,P,ugm-3,87.97500,P,ugm-3
10-01-2024,18:00,24.69654,P,ugm-3,38.82375,P,ugm-3,74.58750,P,ugm-3
10-01-2024,19:00,11.84935,P,ugm-3,28.49625,P,ugm-3,43.98750,P,ugm-3
10-01-2024,20:00,11.47516,P,ugm-3,29.64375,P,ugm-3,45.90000,P,ugm-3
10-01-2024,21:00,12.97192,P,ugm-3,26.77500,P,ugm-3,45.90000,P,ugm-3
10-01-2024,22:00,9.60421,P,ugm-3,22.95000,P,ugm-3,36.33750,P,ugm-3
10-01-2024,23:00,9.35475,P,ugm-3,26.01000,P,ugm-3,40.35375,P,ugm-3
10-01-2024,24:00,13.84503,P,ugm-3,30.40875,P,ugm-3,51.63750,P,ugm-3
11-01-2024,01:00,8.23218,P,ugm-3,24.28875,P,ugm-3,36.91125,P,ugm-3
11-01-2024,02:00,7.23434,P,ugm-3,20.27250,P,ugm-3,31.36500,P,ugm-3
11-01-2024,03:00,5.73758,P,ugm-3,19.12500,P,ugm-3,27.92250,P,ugm-3
11-01-2024,04:00,6.23650,P,ugm-3,16.44750,P,ugm-3,26.01000,P,ugm-3
11-01-2024,05:00,8.10745,P,ugm-3,19.69875,P,ugm-3,32.13000,P,ugm-3
11-01-2024,06:00,9.97840,P,ugm-3,25.81875,P,ugm-3,41.11875,P,ugm-3
11-01-2024,07:00,13.09665,P,ugm-3,30.79125,P,ugm-3,50.87250,P,ugm-3
11-01-2024,08:00,22.45140,P,ugm-3,36.91125,P,ugm-3,71.33625,P,ugm-3
11-01-2024,09:00,41.03617,P,ugm-3,45.13500,P,ugm-3,108.05625,P,ugm-3
11-01-2024,10:00,33.92656,P,ugm-3,44.37000,P,ugm-3,96.39000,P,ugm-3
11-01-2024,11:00,32.92872,P,ugm-3,41.69250,P,ugm-3,92.18250,P,ugm-3
11-01-2024,12:00,20.82991,P,ugm-3,35.19000,P,ugm-3,67.12875,P,ugm-3
11-01-2024,13:00,21.70302,P,ugm-3,29.64375,P,ugm-3,62.92125,P,ugm-3
11-01-2024,14:00,16.58909,P,ugm-3,27.34875,P,ugm-3,52.78500,P,ugm-3
11-01-2024,15:00,27.06641,P,ugm-3,38.44125,P,ugm-3,79.94250,P,ugm-3
11-01-2024,16:00,41.65982,P,ugm-3,46.85625,P,ugm-3,110.73375,P,ugm-3
11-01-2024,17:00,28.93736,P,ugm-3,45.90000,P,ugm-3,90.27000,P,ugm-3
11-01-2024,18:00,28.18898,P,ugm-3,43.22250,P,ugm-3,86.44500,P,ugm-3
11-01-2024,19:00,29.81047,P,ugm-3,41.11875,P,ugm-3,86.82750,P,ugm-3
11-01-2024,20:00,19.58261,P,ugm-3,37.29375,P,ugm-3,67.32000,P,ugm-3
11-01-2024,21:00,15.59125,P,ugm-3,30.79125,P,ugm-3,54.69750,P,ugm-3
11-01-2024,22:00,10.85151,P,ugm-3,23.90625,P,ugm-3,40.54500,P,ugm-3
11-01-2024,23:00,7.48380,P,ugm-3,20.84625,P,ugm-3,32.32125,P,ugm-3
11-01-2024,24:00,9.23002,P,ugm-3,20.27250,P,ugm-3,34.42500,P,ugm-3
12-01-2024,01:00,8.10745,P,ugm-3,21.03750,P,ugm-3,33.46875,P,ugm-3
12-01-2024,02:00,7.23434,P,ugm-3,17.21250,P,ugm-3,28.30500,P,ugm-3
12-01-2024,03:00,5.23866,P,ugm-3,13.96125,P,ugm-3,21.99375,P,ugm-3
12-01-2024,04:00,,,,,,,,,
12-01-2024,05:00,,,,,,,,,
12-01-2024,06:00,,,,,,,,,
12-01-2024,07:00,,,,,,,,,
12-01-2024,08:00,,,,,,,,,
12-01-2024,09:00,,,,,,,,,
12-01-2024,10:00,18.08585,P,ugm-3,33.27750,P,ugm-3,61.00875,P,ugm-3
12-01-2024,11:00,18.83423,P,ugm-3,29.26125,P,ugm-3,58.14000,P,ugm-3
12-01-2024,12:00,21.82775,P,ugm-3,33.46875,P,ugm-3,66.93750,P,ugm-3
12-01-2024,13:00,19.20842,P,ugm-3,32.51250,P,ugm-3,61.96500,P,ugm-3
12-01-2024,14:00,21.07937,P,ugm-3,35.38125,P,ugm-3,67.70250,P,ugm-3
12-01-2024,15:00,26.19330,P,ugm-3,35.76375,P,ugm-3,75.92625,P,ugm-3
12-01-2024,16:00,29.31155,P,ugm-3,42.45750,P,ugm-3,87.40125,P,ugm-3
12-01-2024,17:00,23.69870,P,ugm-3,36.91125,P,ugm-3,73.24875,P,ugm-3
12-01-2024,18:00,26.81695,P,ugm-3,41.69250,P,ugm-3,82.81125,P,ugm-3
12-01-2024,19:00,21.20410,P,ugm-3,30.40875,P,ugm-3,62.92125,P,ugm-3
12-01-2024,20:00,19.20842,P,ugm-3,32.51250,P,ugm-3,61.96500,P,ugm-3
12-01-2024,21:00,17.21274,P,ugm-3,30.60000,P,ugm-3,56.99250,P,ugm-3
12-01-2024,22:00,11.84935,P,ugm-3,25.05375,P,ugm-3,43.22250,P,ugm-3
12-01-2024,23:00,7.98272,P,ugm-3,23.14125,P,ugm-3,35.38125,P,ugm-3
12-01-2024,24:00,13.96976,P,ugm-3,29.45250,P,ugm-3,50.87250,P,ugm-3
13-01-2024,01:00,7.10961,P,ugm-3,27.34875,P,ugm-3,38.25000,P,ugm-3
13-01-2024,02:00,8.60637,P,ugm-3,23.71500,P,ugm-3,36.91125,P,ugm-3
13-01-2024,03:00,2.99352,P,ugm-3,19.89000,P,ugm-3,24.48000,P,ugm-3
13-01-2024,04:00,3.24298,P,ugm-3,12.81375,P,ugm-3,17.78625,P,ugm-3
13-01-2024,05:00,4.36555,P,ugm-3,13.38750,P,ugm-3,20.08125,P,ugm-3
13-01-2024,06:00,4.11609,P,ugm-3,12.04875,P,ugm-3,18.36000,P,ugm-3
13-01-2024,07:00,4.86447,P,ugm-3,12.04875,P,ugm-3,19.50750,P,ugm-3
13-01-2024,08:00,9.35475,P,ugm-3,18.74250,P,ugm-3,33.08625,P,ugm-3
13-01-2024,09:00,9.47948,P,ugm-3,19.69875,P,ugm-3,34.23375,P,ugm-3
13-01-2024,10:00,12.22354,P,ugm-3,21.80250,P,ugm-3,40.54500,P,ugm-3
13-01-2024,11:00,13.22138,P,ugm-3,22.37625,P,ugm-3,42.64875,P,ugm-3
13-01-2024,12:00,13.34611,P,ugm-3,26.58375,P,ugm-3,47.04750,P,ugm-3
13-01-2024,13:00,17.83639,P,ugm-3,30.21750,P,ugm-3,57.56625,P,ugm-3
13-01-2024,14:00,16.71382,P,ugm-3,31.36500,P,ugm-3,56.99250,P,ugm-3
13-01-2024,15:00,16.83855,P,ugm-3,29.64375,P,ugm-3,55.46250,P,ugm-3
13-01-2024,16:00,13.96976,P,ugm-3,35.76375,P,ugm-3,57.18375,P,ugm-3
13-01-2024,17:00,15.09233,P,ugm-3,39.39750,P,ugm-3,62.53875,P,ugm-3
13-01-2024,18:00,23.69870,P,ugm-3,46.85625,P,ugm-3,83.19375,P,ugm-3
13-01-2024,19:00,14.84287,P,ugm-3,35.57250,P,ugm-3,58.33125,P,ugm-3
13-01-2024,20:00,15.59125,P,ugm-3,35.38125,P,ugm-3,59.28750,P,ugm-3
13-01-2024,21:00,5.23866,P,ugm-3,36.14625,P,ugm-3,44.17875,P,ugm-3
13-01-2024,22:00,3.24298,P,ugm-3,33.85125,P,ugm-3,38.82375,P,ugm-3
13-01-2024,23:00,3.36771,P,ugm-3,33.08625,P,ugm-3,38.25000,P,ugm-3
13-01-2024,24:00,3.99136,P,ugm-3,31.36500,P,ugm-3,37.48500,P,ugm-3
14-01-2024,01:00,2.86879,P,ugm-3,25.62750,P,ugm-3,30.02625,P,ugm-3
14-01-2024,02:00,4.49028,P,ugm-3,20.08125,P,ugm-3,26.96625,P,ugm-3
14-01-2024,03:00,4.73974,P,ugm-3,20.27250,P,ugm-3,27.54000,P,ugm-3
14-01-2024,04:00,3.36771,P,ugm-3,19.50750,P,ugm-3,24.67125,P,ugm-3
14-01-2024,05:00,3.61717,P,ugm-3,18.55125,P,ugm-3,24.09750,P,ugm-3
14-01-2024,06:00,3.99136,P,ugm-3,21.61125,P,ugm-3,27.73125,P,ugm-3
14-01-2024,07:00,4.49028,P,ugm-3,23.33250,P,ugm-3,30.21750,P,ugm-3
14-01-2024,08:00,5.48812,P,ugm-3,24.48000,P,ugm-3,32.89500,P,ugm-3
14-01-2024,09:00,7.35907,P,ugm-3,29.07000,P,ugm-3,40.35375,P,ugm-3
14-01-2024,10:00,12.34827,P,ugm-3,32.70375,P,ugm-3,51.63750,P,ugm-3
14-01-2024,11:00,10.60205,P,ugm-3,32.13000,P,ugm-3,48.38625,P,ugm-3
14-01-2024,12:00,8.48164,P,ugm-3,26.77500,P,ugm-3,39.78000,P,ugm-3
14-01-2024,13:00,11.22570,P,ugm-3,27.54000,P,ugm-3,44.75250,P,ugm-3
14-01-2024,14:00,10.10313,P,ugm-3,21.61125,P,ugm-3,37.10250,P,ugm-3
14-01-2024,15:00,12.97192,P,ugm-3,22.75875,P,ugm-3,42.64875,P,ugm-3
14-01-2024,16:00,10.47732,P,ugm-3,23.71500,P,ugm-3,39.78000,P,ugm-3
14-01-2024,17:00,15.59125,P,ugm-3,30.02625,P,ugm-3,53.93250,P,ugm-3
14-01-2024,18:00,12.59773,P,ugm-3,25.43625,P,ugm-3,44.75250,P,ugm-3
14-01-2024,19:00,12.72246,P,ugm-3,27.34875,P,ugm-3,46.85625,P,ugm-3
14-01-2024,20:00,10.22786,P,ugm-3,22.18500,P,ugm-3,37.86750,P,ugm-3
14-01-2024,21:00,10.22786,P,ugm-3,21.80250,P,ugm-3,37.48500,P,ugm-3
14-01-2024,22:00,9.97840,P,ugm-3,20.65500,P,ugm-3,35.95500,P,ugm-3
14-01-2024,23:00,8.35691,P,ugm-3,19.89000,P,ugm-3,32.70375,P,ugm-3
14-01-2024,24:00,9.85367,P,ugm-3,21.80250,P,ugm-3,36.91125,P,ugm-3
15-01-2024,01:00,5.61285,P,ugm-3,17.59500,P,ugm-3,26.20125,P,ugm-3
15-01-2024,02:00,3.49244,P,ugm-3,14.72625,P,ugm-3,20.08125,P,ugm-3
15-01-2024,03:00,3.99136,P,ugm-3,15.87375,P,ugm-3,21.99375,P,ugm-3
15-01-2024,04:00,4.36555,P,ugm-3,17.02125,P,ugm-3,23.71500,P,ugm-3
15-01-2024,05:00,3.61717,P,ugm-3,17.02125,P,ugm-3,22.56750,P,ugm-3
15-01-2024,06:00,3.61717,P,ugm-3,18.36000,P,ugm-3,23.90625,P,ugm-3
15-01-2024,07:00,5.73758,P,ugm-3,19.50750,P,ugm-3,28.30500,P,ugm-3
15-01-2024,08:00,15.84071,P,ugm-3,30.79125,P,ugm-3,55.08000,P,ugm-3
15-01-2024,09:00,18.95896,P,ugm-3,39.20625,P,ugm-3,68.27625,P,ugm-3
15-01-2024,10:00,17.58693,P,ugm-3,32.89500,P,ugm-3,59.86125,P,ugm-3
15-01-2024,11:00,13.47084,P,ugm-3,23.90625,P,ugm-3,44.56125,P,ugm-3
15-01-2024,12:00,14.96760,P,ugm-3,24.67125,P,ugm-3,47.62125,P,ugm-3
15-01-2024,13:00,12.59773,P,ugm-3,23.71500,P,ugm-3,43.03125,P,ugm-3
15-01-2024,14:00,12.09881,P,ugm-3,22.18500,P,ugm-3,40.73625,P,ugm-3
15-01-2024,15:00,14.59341,P,ugm-3,24.67125,P,ugm-3,47.04750,P,ugm-3
15-01-2024,16:00,26.19330,P,ugm-3,34.23375,P,ugm-3,74.39625,P,ugm-3
15-01-2024,17:00,27.44060,P,ugm-3,42.64875,P,ugm-3,84.72375,P,ugm-3
15-01-2024,18:00,25.07073,P,ugm-3,45.70875,P,ugm-3,84.15000,P,ugm-3
15-01-2024,19:00,27.93952,P,ugm-3,53.16750,P,ugm-3,96.00750,P,ugm-3
15-01-2024,20:00,22.32667,P,ugm-3,54.50625,P,ugm-3,88.74000,P,ugm-3
15-01-2024,21:00,19.83207,P,ugm-3,56.22750,P,ugm-3,86.63625,P,ugm-3
15-01-2024,22:00,19.33315,P,ugm-3,57.18375,P,ugm-3,86.82750,P,ugm-3